When you browse on this site, cookies collect data to enhance your experience and personalize the content and advertising you see.
Visit our Privacy Policy to learn more. By continuing to use the site, you agree to this use of cookies and data.
  • In United Kingdom
  • List of Countries
  • For 7 days
  • Water Temperature
  • Weather Map
  • Weather Widgets
  • user-avatar
    Login

    Hourly Weather Balchik

    Today, 23 October, Wednesday

    Time Temperature Precipitation Wind Pressure Humidity
    00:00 +13°C° 0 mm 1 mps 745 mmHg 90%
    01:00 +13°C° 0 mm 1 mps 745 mmHg 89%
    02:00 +13°C° 0 mm 1 mps 745 mmHg 90%
    03:00 +12°C° 0 mm 1 mps 745 mmHg 90%
    04:00 +12°C° 0 mm 1 mps 745 mmHg 90%
    05:00 +12°C° 0 mm 1 mps 745 mmHg 90%
    06:00 +13°C° 0 mm 1 mps 745 mmHg 86%
    07:00 +14°C° 0 mm 1 mps 745 mmHg 82%
    08:00 +15°C° 0 mm 1 mps 745 mmHg 77%
    09:00 +18°C° 0 mm 1 mps 745 mmHg 66%
    10:00 +20°C° 0 mm 1 mps 745 mmHg 55%
    11:00 +22°C° 0 mm 1 mps 745 mmHg 44%
    12:00 +22°C° 0 mm 1 mps 745 mmHg 42%
    13:00 +23°C° 0 mm 2 mps 744 mmHg 39%
    14:00 +24°C° 0 mm 2 mps 744 mmHg 36%
    15:00 +21°C° 0 mm 2 mps 744 mmHg 41%
    16:00 +20°C° 0 mm 2 mps 744 mmHg 47%
    17:00 +19°C° 0 mm 2 mps 743 mmHg 53%
    18:00 +18°C° 0 mm 2 mps 743 mmHg 60%
    19:00 +16°C° 0 mm 2 mps 744 mmHg 67%
    20:00 +15°C° 0 mm 2 mps 744 mmHg 75%
    21:00 +15°C° 0 mm 1 mps 743 mmHg 76%
    22:00 +14°C° 0 mm 1 mps 743 mmHg 77%
    23:00 +14°C° 0 mm 1 mps 743 mmHg 79%

    Tomorrow, 24 October, Thursday

    Time Temperature Precipitation Wind Pressure Humidity
    00:00 +14°C° 0 mm 1 mps 743 mmHg 79%
    01:00 +13°C° 0 mm 1 mps 743 mmHg 79%
    02:00 +13°C° 0 mm 1 mps 743 mmHg 80%
    03:00 +13°C° 0 mm 1 mps 743 mmHg 79%
    04:00 +13°C° 0 mm 1 mps 743 mmHg 78%
    05:00 +11°C° 0 mm 0 mps 742 mmHg 76%
    06:00 +12°C° 0 mm 0 mps 743 mmHg 72%
    07:00 +14°C° 0 mm 1 mps 743 mmHg 67%
    08:00 +15°C° 0 mm 1 mps 743 mmHg 62%
    09:00 +18°C° 0 mm 1 mps 743 mmHg 55%
    10:00 +19°C° 0 mm 2 mps 743 mmHg 48%
    11:00 +21°C° 0 mm 2 mps 743 mmHg 40%
    12:00 +21°C° 0 mm 2 mps 743 mmHg 39%
    13:00 +23°C° 0 mm 2 mps 742 mmHg 38%
    14:00 +23°C° 0 mm 2 mps 742 mmHg 36%
    15:00 +21°C° 0 mm 2 mps 742 mmHg 42%
    16:00 +19°C° 0 mm 2 mps 741 mmHg 48%
    17:00 +18°C° 0 mm 2 mps 741 mmHg 54%
    18:00 +17°C° 0 mm 2 mps 741 mmHg 58%
    19:00 +16°C° 0 mm 2 mps 741 mmHg 63%
    20:00 +15°C° 0 mm 2 mps 741 mmHg 68%
    21:00 +14°C° 0 mm 2 mps 741 mmHg 70%
    22:00 +14°C° 0 mm 2 mps 741 mmHg 73%
    23:00 +13°C° 0 mm 2 mps 741 mmHg 75%

    Day after tomorrow, 25 October, Friday

    Time Temperature Precipitation Wind Pressure Humidity
    00:00 +13°C° 0 mm 2 mps 741 mmHg 77%
    01:00 +13°C° 0 mm 1 mps 741 mmHg 78%
    02:00 +13°C° 0 mm 1 mps 741 mmHg 79%
    03:00 +13°C° 0 mm 1 mps 741 mmHg 79%
    04:00 +13°C° 0 mm 1 mps 741 mmHg 78%
    05:00 +12°C° 0 mm 1 mps 741 mmHg 77%
    06:00 +13°C° 0 mm 1 mps 741 mmHg 75%
    07:00 +14°C° 0 mm 1 mps 741 mmHg 73%
    08:00 +14°C° 0 mm 1 mps 742 mmHg 71%
    09:00 +16°C° 0 mm 2 mps 742 mmHg 62%
    10:00 +18°C° 0 mm 2 mps 742 mmHg 54%
    11:00 +20°C° 0 mm 2 mps 742 mmHg 46%
    12:00 +21°C° 0 mm 2 mps 742 mmHg 44%
    13:00 +23°C° 0 mm 2 mps 742 mmHg 41%
    14:00 +23°C° 0 mm 2 mps 742 mmHg 38%
    15:00 +21°C° 0 mm 2 mps 742 mmHg 44%
    16:00 +19°C° 0 mm 2 mps 741 mmHg 49%
    17:00 +18°C° 0 mm 2 mps 741 mmHg 54%
    18:00 +17°C° 0 mm 2 mps 741 mmHg 59%
    19:00 +16°C° 0 mm 2 mps 742 mmHg 64%
    20:00 +15°C° 0 mm 1 mps 742 mmHg 68%
    21:00 +14°C° 0 mm 1 mps 742 mmHg 69%
    22:00 +14°C° 0 mm 1 mps 742 mmHg 69%
    23:00 +14°C° 0 mm 1 mps 743 mmHg 70%

    26 October, Saturday

    Time Temperature Precipitation Wind Pressure Humidity
    00:00 +12°C° 0 mm 0 mps 742 mmHg 70%
    01:00 +12°C° 0 mm 0 mps 742 mmHg 69%
    02:00 +12°C° 0 mm 0 mps 742 mmHg 69%
    03:00 +12°C° 0 mm 0 mps 743 mmHg 68%
    04:00 +11°C° 0 mm 0 mps 743 mmHg 68%
    05:00 +11°C° 0 mm 0 mps 743 mmHg 67%
    06:00 +12°C° 0 mm 0 mps 743 mmHg 64%
    07:00 +13°C° 0 mm 0 mps 743 mmHg 61%
    08:00 +14°C° 0 mm 0 mps 744 mmHg 58%
    09:00 +16°C° 0 mm 0 mps 744 mmHg 51%
    10:00 +18°C° 0 mm 0 mps 744 mmHg 44%
    11:00 +21°C° 0 mm 1 mps 745 mmHg 37%
    12:00 +22°C° 0 mm 1 mps 744 mmHg 35%
    13:00 +23°C° 0 mm 1 mps 744 mmHg 33%
    14:00 +24°C° 0 mm 1 mps 744 mmHg 31%
    15:00 +22°C° 0 mm 1 mps 743 mmHg 36%
    16:00 +21°C° 0 mm 1 mps 743 mmHg 41%
    17:00 +19°C° 0 mm 1 mps 743 mmHg 47%
    18:00 +18°C° 0 mm 1 mps 743 mmHg 52%
    19:00 +16°C° 0 mm 1 mps 743 mmHg 57%
    20:00 +15°C° 0 mm 1 mps 743 mmHg 62%
    21:00 +15°C° 0 mm 1 mps 743 mmHg 63%
    22:00 +15°C° 0 mm 1 mps 743 mmHg 64%
    23:00 +14°C° 0 mm 1 mps 743 mmHg 66%

    27 October, Sunday

    Time Temperature Precipitation Wind Pressure Humidity
    00:00 +14°C° 0 mm 1 mps 742 mmHg 65%
    01:00 +14°C° 0 mm 1 mps 742 mmHg 65%
    02:00 +14°C° 0 mm 1 mps 742 mmHg 64%
    03:00 +13°C° 0 mm 1 mps 742 mmHg 64%
    04:00 +13°C° 0 mm 1 mps 742 mmHg 63%
    05:00 +13°C° 0 mm 1 mps 742 mmHg 63%
    06:00 +13°C° 0 mm 0 mps 742 mmHg 60%
    07:00 +13°C° 0 mm 0 mps 742 mmHg 57%
    08:00 +14°C° 0 mm 0 mps 742 mmHg 54%
    09:00 +16°C° 0 mm 0 mps 742 mmHg 49%
    10:00 +20°C° 0 mm 1 mps 742 mmHg 44%
    11:00 +21°C° 0 mm 1 mps 742 mmHg 39%
    12:00 +22°C° 0 mm 1 mps 742 mmHg 38%
    13:00 +23°C° 0 mm 1 mps 741 mmHg 37%
    14:00 +23°C° 0 mm 1 mps 741 mmHg 36%
    15:00 +20°C° 0 mm 2 mps 741 mmHg 43%
    16:00 +19°C° 0 mm 2 mps 740 mmHg 50%
    17:00 +17°C° 0 mm 2 mps 740 mmHg 57%
    18:00 +16°C° 0 mm 2 mps 740 mmHg 62%
    19:00 +15°C° 0 mm 2 mps 740 mmHg 67%
    20:00 +14°C° 0 mm 2 mps 740 mmHg 73%
    21:00 +14°C° 0 mm 2 mps 740 mmHg 75%
    22:00 +13°C° 0 mm 2 mps 740 mmHg 77%
    23:00 +13°C° 0 mm 2 mps 740 mmHg 80%

    28 October, Monday

    Time Temperature Precipitation Wind Pressure Humidity
    00:00 +13°C° 0 mm 2 mps 739 mmHg 81%
    01:00 +13°C° 0 mm 2 mps 739 mmHg 82%
    02:00 +12°C° 0 mm 1 mps 739 mmHg 84%
    03:00 +12°C° 0 mm 1 mps 739 mmHg 84%
    04:00 +12°C° 0 mm 1 mps 739 mmHg 84%
    05:00 +12°C° 0 mm 1 mps 738 mmHg 85%
    06:00 +12°C° 0 mm 1 mps 738 mmHg 82%
    07:00 +13°C° 0 mm 2 mps 738 mmHg 79%
    08:00 +13°C° 0 mm 2 mps 738 mmHg 77%
    09:00 +15°C° 0 mm 2 mps 738 mmHg 67%
    10:00 +17°C° 0 mm 2 mps 738 mmHg 57%
    11:00 +19°C° 0 mm 3 mps 738 mmHg 48%
    12:00 +20°C° 0 mm 3 mps 738 mmHg 45%
    13:00 +20°C° 0 mm 2 mps 738 mmHg 42%
    14:00 +21°C° 0 mm 2 mps 738 mmHg 40%
    15:00 +19°C° 0 mm 2 mps 737 mmHg 47%
    16:00 +18°C° 0 mm 3 mps 737 mmHg 53%
    17:00 +17°C° 0 mm 3 mps 737 mmHg 60%
    18:00 +16°C° 0 mm 3 mps 737 mmHg 66%
    19:00 +14°C° 0 mm 3 mps 737 mmHg 71%
    20:00 +13°C° 0 mm 3 mps 737 mmHg 76%
    21:00 +14°C° 0 mm 2 mps 737 mmHg 77%
    22:00 +13°C° 0 mm 2 mps 737 mmHg 78%
    23:00 +13°C° 0 mm 2 mps 737 mmHg 79%

    29 October, Tuesday

    Time Temperature Precipitation Wind Pressure Humidity
    00:00 +13°C° 0 mm 2 mps 737 mmHg 78%
    01:00 +13°C° 0 mm 2 mps 737 mmHg 77%
    02:00 +13°C° 0 mm 2 mps 737 mmHg 76%
    03:00 +13°C° 0 mm 2 mps 737 mmHg 73%
    04:00 +13°C° 0 mm 2 mps 737 mmHg 70%
    05:00 +12°C° 0 mm 1 mps 737 mmHg 67%
    06:00 +13°C° 0 mm 1 mps 737 mmHg 62%
    07:00 +13°C° 0 mm 1 mps 738 mmHg 58%
    08:00 +14°C° 0 mm 1 mps 738 mmHg 53%
    09:00 +16°C° 0 mm 1 mps 738 mmHg 47%
    10:00 +18°C° 0 mm 2 mps 738 mmHg 40%
    11:00 +19°C° 0 mm 2 mps 739 mmHg 34%
    12:00 +20°C° 0 mm 2 mps 739 mmHg 33%
    13:00 +21°C° 0 mm 2 mps 738 mmHg 33%
    14:00 +21°C° 0 mm 2 mps 738 mmHg 32%
    15:00 +20°C° 0 mm 2 mps 738 mmHg 41%
    16:00 +18°C° 0 mm 2 mps 738 mmHg 50%
    17:00 +16°C° 0 mm 3 mps 738 mmHg 59%
    18:00 +14°C° 0 mm 3 mps 738 mmHg 66%
    19:00 +14°C° 0 mm 2 mps 738 mmHg 72%
    20:00 +13°C° 0 mm 2 mps 738 mmHg 78%
    21:00 +13°C° 0 mm 2 mps 738 mmHg 82%
    22:00 +13°C° 0 mm 2 mps 739 mmHg 86%
    23:00 +12°C° 0 mm 2 mps 739 mmHg 90%
    Show more